Time,TemperatureF,DewpointF,PressureIn,WindDirection,WindDirectionDegrees,WindSpeedMPH,WindSpeedGustMPH,Humidity,HourlyPrecipIn,Conditions,Clouds,dailyrainin,SoftwareType,DateUTC
2013-12-06 00:01:00,37.3,32.6,30.18,NW,315,0.0,0.0,83,0.00,,,0.00,WeatherCatV1.23B16,2013-12-06 08:01:00,
2013-12-06 00:06:00,35.5,30.9,30.18,WNW,302,1.0,1.0,83,0.00,,,0.00,WeatherCatV1.23B16,2013-12-06 08:06:00,
2013-12-06 00:11:00,35.4,31.1,30.18,WNW,302,1.0,2.0,84,0.00,,,0.00,WeatherCatV1.23B16,2013-12-06 08:11:00,
2013-12-06 00:16:00,35.1,30.5,30.18,NW,310,1.0,2.0,83,0.00,,,0.00,WeatherCatV1.23B16,2013-12-06 08:16:00,
2013-12-06 00:21:00,35.0,30.7,30.18,NW,306,0.0,0.0,84,0.00,,,0.00,WeatherCatV1.23B16,2013-12-06 08:21:00,
2013-12-06 00:26:00,35.2,30.9,30.18,NNE,17,0.0,0.0,84,0.00,,,0.00,WeatherCatV1.23B16,2013-12-06 08:26:00,
2013-12-06 00:31:00,35.4,31.1,30.18,NNE,14,0.0,0.0,84,0.00,,,0.00,WeatherCatV1.23B16,2013-12-06 08:31:00,
2013-12-06 00:36:00,35.3,31.0,30.18,NNE,16,0.0,0.0,84,0.00,,,0.00,WeatherCatV1.23B16,2013-12-06 08:36:00,
2013-12-06 00:41:00,35.0,31.0,30.18,NNE,16,0.0,0.0,85,0.00,,,0.00,WeatherCatV1.23B16,2013-12-06 08:41:00,
2013-12-06 00:46:00,35.1,31.3,30.18,NNE,13,0.0,0.0,86,0.00,,,0.00,WeatherCatV1.23B16,2013-12-06 08:46:00,
2013-12-06 00:51:00,35.7,32.5,30.18,NW,315,0.0,1.0,88,0.00,,,0.00,WeatherCatV1.23B16,2013-12-06 08:51:00,
2013-12-06 00:56:00,36.0,32.5,30.18,NW,310,0.0,1.0,87,0.00,,,0.00,WeatherCatV1.23B16,2013-12-06 08:56:00,
2013-12-06 01:01:00,36.0,32.5,30.18,WNW,302,2.0,2.0,87,0.00,,,0.00,WeatherCatV1.23B16,2013-12-06 09:01:00,
2013-12-06 01:06:00,35.9,32.1,30.18,NW,308,1.0,2.0,86,0.00,,,0.00,WeatherCatV1.23B16,2013-12-06 09:06:00,
2013-12-06 01:11:00,35.7,31.9,30.17,West,281,1.0,2.0,86,0.00,,,0.00,WeatherCatV1.23B16,2013-12-06 09:11:00,
2013-12-06 01:16:00,35.5,31.7,30.17,NW,304,1.0,2.0,86,0.00,,,0.00,WeatherCatV1.23B16,2013-12-06 09:16:00,
2013-12-06 01:21:00,35.4,31.1,30.17,WNW,303,2.0,2.0,84,0.00,,,0.00,WeatherCatV1.23B16,2013-12-06 09:21:00,
2013-12-06 01:26:00,35.4,31.4,30.17,WNW,302,0.0,1.0,85,0.00,,,0.00,WeatherCatV1.23B16,2013-12-06 09:26:00,
2013-12-06 01:31:00,35.5,31.5,30.17,NW,318,1.0,1.0,85,0.00,,,0.00,WeatherCatV1.23B16,2013-12-06 09:31:00,
2013-12-06 01:36:00,35.4,31.1,30.18,WNW,297,1.0,2.0,84,0.00,,,0.00,WeatherCatV1.23B16,2013-12-06 09:36:00,
2013-12-06 01:41:00,35.4,31.1,30.17,WNW,298,0.0,0.0,84,0.00,,,0.00,WeatherCatV1.23B16,2013-12-06 09:41:00,
2013-12-06 01:46:00,35.2,30.9,30.17,WNW,298,0.0,0.0,84,0.00,,,0.00,WeatherCatV1.23B16,2013-12-06 09:46:00,
2013-12-06 01:51:00,35.2,31.1,30.17,WNW,298,0.0,0.0,85,0.00,,,0.00,WeatherCatV1.23B16,2013-12-06 09:51:00,
2013-12-06 01:56:00,35.0,31.0,30.17,WNW,298,0.0,0.0,85,0.00,,,0.00,WeatherCatV1.23B16,2013-12-06 09:56:00,
2013-12-06 02:01:00,34.9,30.9,30.17,WNW,298,0.0,0.0,85,0.00,,,0.00,WeatherCatV1.23B16,2013-12-06 10:01:00,
2013-12-06 02:06:00,34.8,30.8,30.17,WNW,299,0.0,1.0,85,0.00,,,0.00,WeatherCatV1.23B16,2013-12-06 10:06:00,
2013-12-06 02:11:00,34.9,31.1,30.18,WNW,290,1.0,1.0,86,0.00,,,0.00,WeatherCatV1.23B16,2013-12-06 10:11:00,
2013-12-06 02:16:00,35.0,31.2,30.18,NW,306,1.0,1.0,86,0.00,,,0.00,WeatherCatV1.23B16,2013-12-06 10:16:00,
2013-12-06 02:21:00,35.3,31.5,30.18,West,272,1.0,1.0,86,0.00,,,0.00,WeatherCatV1.23B16,2013-12-06 10:21:00,
2013-12-06 02:26:00,35.2,31.4,30.18,NNW,340,1.0,1.0,86,0.00,,,0.00,WeatherCatV1.23B16,2013-12-06 10:26:00,
2013-12-06 02:31:00,35.3,31.5,30.18,WNW,292,0.0,1.0,86,0.00,,,0.00,WeatherCatV1.23B16,2013-12-06 10:31:00,
2013-12-06 02:36:00,35.7,31.6,30.18,WNW,296,1.0,2.0,85,0.00,,,0.00,WeatherCatV1.23B16,2013-12-06 10:36:00,
2013-12-06 02:41:00,35.6,31.8,30.18,WNW,298,0.0,0.0,86,0.00,,,0.00,WeatherCatV1.23B16,2013-12-06 10:41:00,
2013-12-06 02:46:00,35.6,31.8,30.18,WNW,298,0.0,0.0,86,0.00,,,0.00,WeatherCatV1.23B16,2013-12-06 10:46:00,
2013-12-06 02:51:00,-999.0,-99.9,30.18,North,-999,-999.0,0.0,-999,0.00,,,0.00,WeatherCatV1.23B16,2013-12-06 10:51:00,
2013-12-06 02:56:00,-999.0,-99.9,30.18,North,-999,-999.0,0.0,-999,0.00,,,0.00,WeatherCatV1.23B16,2013-12-06 10:56:00,
2013-12-06 03:01:00,-999.0,-99.9,30.18,North,-999,-999.0,0.0,-999,0.00,,,0.00,WeatherCatV1.23B16,2013-12-06 11:01:00,
2013-12-06 03:06:00,36.1,32.3,30.18,NW,315,0.0,0.0,86,0.00,,,0.00,WeatherCatV1.23B16,2013-12-06 11:06:00,
2013-12-06 03:11:00,36.3,32.5,30.18,NW,315,0.0,0.0,86,0.00,,,0.00,WeatherCatV1.23B16,2013-12-06 11:11:00,
2013-12-06 03:16:00,36.9,33.4,30.18,NW,315,0.0,0.0,87,0.00,,,0.00,WeatherCatV1.23B16,2013-12-06 11:16:00,
2013-12-06 03:21:00,37.5,34.0,30.18,NW,315,0.0,0.0,87,0.00,,,0.00,WeatherCatV1.23B16,2013-12-06 11:21:00,
2013-12-06 03:26:00,37.9,34.4,30.18,NW,315,0.0,0.0,87,0.00,,,0.00,WeatherCatV1.23B16,2013-12-06 11:26:00,
2013-12-06 03:31:00,37.5,33.4,30.18,NW,315,0.0,0.0,85,0.00,,,0.00,WeatherCatV1.23B16,2013-12-06 11:31:00,
2013-12-06 03:36:00,37.1,33.3,30.18,NW,315,0.0,0.0,86,0.00,,,0.00,WeatherCatV1.23B16,2013-12-06 11:36:00,
2013-12-06 03:41:00,36.9,33.4,30.18,NW,315,0.0,0.0,87,0.00,,,0.00,WeatherCatV1.23B16,2013-12-06 11:41:00,
2013-12-06 03:46:00,37.0,33.5,30.18,NW,315,0.0,0.0,87,0.00,,,0.00,WeatherCatV1.23B16,2013-12-06 11:46:00,
2013-12-06 03:51:00,36.7,32.9,30.18,NW,315,0.0,0.0,86,0.00,,,0.00,WeatherCatV1.23B16,2013-12-06 11:51:00,
2013-12-06 03:56:00,36.4,32.6,30.17,NW,315,0.0,0.0,86,0.00,,,0.00,WeatherCatV1.23B16,2013-12-06 11:56:00,
2013-12-06 04:01:00,36.3,32.8,30.17,NW,315,0.0,0.0,87,0.00,,,0.00,WeatherCatV1.23B16,2013-12-06 12:01:00,
2013-12-06 04:06:00,36.5,33.3,30.17,NW,315,0.0,0.0,88,0.00,,,0.00,WeatherCatV1.23B16,2013-12-06 12:06:00,
2013-12-06 04:11:00,36.8,33.6,30.17,NW,315,0.0,0.0,88,0.00,,,0.00,WeatherCatV1.23B16,2013-12-06 12:11:00,
2013-12-06 04:16:00,36.6,33.1,30.17,NW,315,0.0,0.0,87,0.00,,,0.00,WeatherCatV1.23B16,2013-12-06 12:16:00,
2013-12-06 04:21:00,36.8,33.3,30.17,NW,315,0.0,0.0,87,0.00,,,0.00,WeatherCatV1.23B16,2013-12-06 12:21:00,
2013-12-06 04:26:00,36.8,33.0,30.17,NW,315,0.0,0.0,86,0.00,,,0.00,WeatherCatV1.23B16,2013-12-06 12:26:00,
2013-12-06 04:31:00,36.5,32.7,30.17,NW,315,0.0,0.0,86,0.00,,,0.00,WeatherCatV1.23B16,2013-12-06 12:31:00,
2013-12-06 04:36:00,36.7,33.5,30.17,NW,315,0.0,0.0,88,0.00,,,0.00,WeatherCatV1.23B16,2013-12-06 12:36:00,
2013-12-06 04:41:00,36.8,33.6,30.17,NW,315,0.0,0.0,88,0.00,,,0.00,WeatherCatV1.23B16,2013-12-06 12:41:00,
2013-12-06 04:46:00,36.7,33.2,30.17,NW,315,0.0,0.0,87,0.00,,,0.00,WeatherCatV1.23B16,2013-12-06 12:46:00,
2013-12-06 04:51:00,36.2,32.7,30.17,NW,315,0.0,0.0,87,0.00,,,0.00,WeatherCatV1.23B16,2013-12-06 12:51:00,
2013-12-06 04:56:00,36.4,33.5,30.17,NW,315,0.0,0.0,89,0.00,,,0.00,WeatherCatV1.23B16,2013-12-06 12:56:00,
2013-12-06 05:01:00,37.1,34.4,30.17,NW,313,0.0,5.0,90,0.00,,,0.00,WeatherCatV1.23B16,2013-12-06 13:01:00,
2013-12-06 05:06:00,37.0,33.8,30.17,NW,313,0.0,0.0,88,0.00,,,0.00,WeatherCatV1.23B16,2013-12-06 13:06:00,
2013-12-06 05:11:00,37.0,34.1,30.17,NW,308,0.0,0.0,89,0.00,,,0.00,WeatherCatV1.23B16,2013-12-06 13:11:00,
2013-12-06 05:16:00,36.8,33.6,30.17,NW,308,0.0,0.0,88,0.00,,,0.00,WeatherCatV1.23B16,2013-12-06 13:16:00,
2013-12-06 05:21:00,36.8,33.6,30.17,NW,308,0.0,0.0,88,0.00,,,0.00,WeatherCatV1.23B16,2013-12-06 13:21:00,
2013-12-06 05:26:00,36.9,34.0,30.17,NW,308,0.0,0.0,89,0.00,,,0.00,WeatherCatV1.23B16,2013-12-06 13:26:00,
2013-12-06 05:31:00,36.4,33.2,30.17,NW,307,0.0,0.0,88,0.00,,,0.00,WeatherCatV1.23B16,2013-12-06 13:31:00,
2013-12-06 05:36:00,36.2,33.0,30.17,NW,307,0.0,0.0,88,0.00,,,0.00,WeatherCatV1.23B16,2013-12-06 13:36:00,
2013-12-06 05:41:00,36.2,33.3,30.17,NW,307,0.0,0.0,89,0.00,,,0.00,WeatherCatV1.23B16,2013-12-06 13:41:00,
2013-12-06 05:46:00,36.2,33.3,30.17,NW,307,0.0,0.0,89,0.00,,,0.00,WeatherCatV1.23B16,2013-12-06 13:46:00,
2013-12-06 05:51:00,36.3,33.4,30.17,NW,307,0.0,0.0,89,0.00,,,0.00,WeatherCatV1.23B16,2013-12-06 13:51:00,
2013-12-06 05:56:00,36.5,33.6,30.17,NW,307,0.0,0.0,89,0.00,,,0.00,WeatherCatV1.23B16,2013-12-06 13:56:00,
2013-12-06 06:01:00,36.7,33.8,30.17,NW,307,0.0,0.0,89,0.00,,,0.00,WeatherCatV1.23B16,2013-12-06 14:01:00,
2013-12-06 06:06:00,36.5,33.6,30.18,NW,307,0.0,0.0,89,0.00,,,0.00,WeatherCatV1.23B16,2013-12-06 14:06:00,
2013-12-06 06:11:00,36.5,33.6,30.18,NW,307,0.0,0.0,89,0.00,,,0.00,WeatherCatV1.23B16,2013-12-06 14:11:00,
2013-12-06 06:16:00,36.2,33.3,30.18,NW,307,0.0,0.0,89,0.00,,,0.00,WeatherCatV1.23B16,2013-12-06 14:16:00,
2013-12-06 06:21:00,36.2,33.3,30.18,NW,307,0.0,0.0,89,0.00,,,0.00,WeatherCatV1.23B16,2013-12-06 14:21:00,
2013-12-06 06:26:00,36.2,33.3,30.18,NW,307,0.0,0.0,89,0.00,,,0.00,WeatherCatV1.23B16,2013-12-06 14:26:00,
2013-12-06 06:31:00,36.3,33.7,30.18,NW,307,0.0,0.0,90,0.00,,,0.00,WeatherCatV1.23B16,2013-12-06 14:31:00,
2013-12-06 06:36:00,36.9,34.5,30.18,NW,307,0.0,0.0,91,0.00,,,0.00,WeatherCatV1.23B16,2013-12-06 14:36:00,
2013-12-06 06:41:00,37.0,34.3,30.18,NW,307,0.0,0.0,90,0.00,,,0.00,WeatherCatV1.23B16,2013-12-06 14:41:00,
2013-12-06 06:46:00,37.4,34.7,30.18,NW,307,0.0,0.0,90,0.00,,,0.00,WeatherCatV1.23B16,2013-12-06 14:46:00,
2013-12-06 06:51:00,37.4,34.7,30.19,NW,307,0.0,0.0,90,0.00,,,0.00,WeatherCatV1.23B16,2013-12-06 14:51:00,
2013-12-06 06:56:00,37.4,34.7,30.19,NW,308,0.0,0.0,90,0.00,,,0.00,WeatherCatV1.23B16,2013-12-06 14:56:00,
2013-12-06 07:01:00,37.0,34.3,30.19,NW,308,0.0,0.0,90,0.00,,,0.00,WeatherCatV1.23B16,2013-12-06 15:01:00,
2013-12-06 07:06:00,36.5,33.6,30.19,NW,308,0.0,0.0,89,0.00,,,0.00,WeatherCatV1.23B16,2013-12-06 15:06:00,
2013-12-06 07:11:00,36.3,33.7,30.19,NW,308,0.0,0.0,90,0.00,,,0.00,WeatherCatV1.23B16,2013-12-06 15:11:00,
2013-12-06 07:16:00,36.3,33.9,30.19,NW,308,0.0,0.0,91,0.00,,,0.00,WeatherCatV1.23B16,2013-12-06 15:16:00,
2013-12-06 07:21:00,36.5,34.1,30.20,NW,308,0.0,0.0,91,0.00,,,0.00,WeatherCatV1.23B16,2013-12-06 15:21:00,
2013-12-06 07:26:00,36.7,34.3,30.20,NW,308,0.0,0.0,91,0.00,,,0.00,WeatherCatV1.23B16,2013-12-06 15:26:00,
2013-12-06 07:31:00,36.8,34.4,30.20,NW,308,0.0,0.0,91,0.00,,,0.00,WeatherCatV1.23B16,2013-12-06 15:31:00,
2013-12-06 07:36:00,37.1,34.7,30.20,NW,308,0.0,0.0,91,0.00,,,0.00,WeatherCatV1.23B16,2013-12-06 15:36:00,
2013-12-06 07:41:00,37.5,35.1,30.20,NW,308,0.0,0.0,91,0.00,,,0.00,WeatherCatV1.23B16,2013-12-06 15:41:00,
2013-12-06 07:46:00,37.8,35.1,30.20,NW,308,0.0,0.0,90,0.00,,,0.00,WeatherCatV1.23B16,2013-12-06 15:46:00,
2013-12-06 07:51:00,38.0,35.3,30.20,NW,308,0.0,0.0,90,0.00,,,0.00,WeatherCatV1.23B16,2013-12-06 15:51:00,
2013-12-06 07:56:00,37.8,35.1,30.20,NW,308,0.0,0.0,90,0.00,,,0.00,WeatherCatV1.23B16,2013-12-06 15:56:00,
2013-12-06 08:01:00,37.6,34.9,30.21,NW,308,0.0,0.0,90,0.00,,,0.00,WeatherCatV1.23B16,2013-12-06 16:01:00,
2013-12-06 08:06:00,37.3,34.4,30.21,NW,308,0.0,0.0,89,0.00,,,0.00,WeatherCatV1.23B16,2013-12-06 16:06:00,
2013-12-06 08:11:00,37.2,34.5,30.21,NW,307,0.0,0.0,90,0.00,,,0.00,WeatherCatV1.23B16,2013-12-06 16:11:00,
2013-12-06 08:16:00,37.3,34.4,30.21,NW,305,0.0,0.0,89,0.00,,,0.00,WeatherCatV1.23B16,2013-12-06 16:16:00,
2013-12-06 08:21:00,37.5,34.8,30.21,NW,304,0.0,0.0,90,0.00,,,0.00,WeatherCatV1.23B16,2013-12-06 16:21:00,
2013-12-06 08:26:00,37.9,35.0,30.21,NW,304,0.0,0.0,89,0.00,,,0.00,WeatherCatV1.23B16,2013-12-06 16:26:00,
2013-12-06 08:31:00,38.2,35.0,30.21,NW,304,0.0,0.0,88,0.00,,,0.00,WeatherCatV1.23B16,2013-12-06 16:31:00,
2013-12-06 08:36:00,38.7,34.9,30.21,NW,304,0.0,2.0,86,0.00,,,0.00,WeatherCatV1.23B16,2013-12-06 16:36:00,
2013-12-06 08:41:00,39.2,35.7,30.21,NW,304,0.0,0.0,87,0.00,,,0.00,WeatherCatV1.23B16,2013-12-06 16:41:00,
2013-12-06 08:46:00,39.4,35.6,30.21,NW,305,0.0,0.0,86,0.00,,,0.00,WeatherCatV1.23B16,2013-12-06 16:46:00,
2013-12-06 08:51:00,39.5,35.4,30.21,NW,305,0.0,1.0,85,0.00,,,0.00,WeatherCatV1.23B16,2013-12-06 16:51:00,
2013-12-06 08:56:00,39.7,35.3,30.22,NW,304,0.0,0.0,84,0.00,,,0.00,WeatherCatV1.23B16,2013-12-06 16:56:00,
2013-12-06 09:01:00,40.0,35.6,30.22,NW,304,0.0,0.0,84,0.00,,,0.00,WeatherCatV1.23B16,2013-12-06 17:01:00,
2013-12-06 09:06:00,40.2,35.5,30.22,NW,304,0.0,0.0,83,0.00,,,0.00,WeatherCatV1.23B16,2013-12-06 17:06:00,
2013-12-06 09:11:00,40.4,36.0,30.22,NW,306,0.0,0.0,84,0.00,,,0.00,WeatherCatV1.23B16,2013-12-06 17:11:00,
2013-12-06 09:16:00,40.5,36.0,30.22,NW,306,0.0,0.0,84,0.00,,,0.00,WeatherCatV1.23B16,2013-12-06 17:16:00,
2013-12-06 09:21:00,40.6,36.2,30.22,NW,306,0.0,0.0,84,0.00,,,0.00,WeatherCatV1.23B16,2013-12-06 17:21:00,
2013-12-06 09:26:00,40.9,36.4,30.21,NW,306,0.0,0.0,84,0.00,,,0.00,WeatherCatV1.23B16,2013-12-06 17:26:00,
2013-12-06 09:31:00,41.2,36.7,30.22,NW,306,0.0,0.0,84,0.00,,,0.00,WeatherCatV1.23B16,2013-12-06 17:31:00,
2013-12-06 09:36:00,41.5,37.0,30.22,NW,306,0.0,1.0,84,0.00,,,0.00,WeatherCatV1.23B16,2013-12-06 17:36:00,
2013-12-06 09:41:00,41.7,36.9,30.22,WNW,289,0.0,0.0,83,0.00,,,0.00,WeatherCatV1.23B16,2013-12-06 17:41:00,
2013-12-06 09:46:00,41.8,37.0,30.21,NNW,330,0.0,0.0,83,0.00,,,0.00,WeatherCatV1.23B16,2013-12-06 17:46:00,
2013-12-06 09:51:00,41.7,36.9,30.22,NNW,338,0.0,0.0,83,0.00,,,0.00,WeatherCatV1.23B16,2013-12-06 17:51:00,
2013-12-06 09:56:00,41.9,37.1,30.23,NNW,337,0.0,0.0,83,0.00,,,0.00,WeatherCatV1.23B16,2013-12-06 17:56:00,
2013-12-06 10:01:00,42.0,37.2,30.23,North,350,0.0,0.0,83,0.00,,,0.00,WeatherCatV1.23B16,2013-12-06 18:01:00,
2013-12-06 10:06:00,42.1,37.3,30.23,North,350,0.0,0.0,83,0.00,,,0.00,WeatherCatV1.23B16,2013-12-06 18:06:00,
2013-12-06 10:11:00,42.2,37.4,30.23,North,350,0.0,0.0,83,0.00,,,0.00,WeatherCatV1.23B16,2013-12-06 18:11:00,
2013-12-06 10:16:00,42.2,37.1,30.23,North,350,0.0,0.0,82,0.00,,,0.00,WeatherCatV1.23B16,2013-12-06 18:16:00,
2013-12-06 10:21:00,42.2,37.1,30.24,North,350,0.0,0.0,82,0.00,,,0.00,WeatherCatV1.23B16,2013-12-06 18:21:00,
2013-12-06 10:26:00,42.4,37.0,30.23,North,350,0.0,0.0,81,0.00,,,0.00,WeatherCatV1.23B16,2013-12-06 18:26:00,
2013-12-06 10:31:00,42.4,37.3,30.23,North,350,0.0,0.0,82,0.00,,,0.00,WeatherCatV1.23B16,2013-12-06 18:31:00,
2013-12-06 10:36:00,42.4,37.3,30.23,North,350,0.0,0.0,82,0.00,,,0.00,WeatherCatV1.23B16,2013-12-06 18:36:00,
2013-12-06 10:41:00,42.4,37.0,30.23,North,350,0.0,0.0,81,0.00,,,0.00,WeatherCatV1.23B16,2013-12-06 18:41:00,
2013-12-06 10:46:00,42.7,37.6,30.23,North,350,0.0,0.0,82,0.00,,,0.00,WeatherCatV1.23B16,2013-12-06 18:46:00,
2013-12-06 10:51:00,42.9,37.5,30.23,North,350,0.0,0.0,81,0.00,,,0.00,WeatherCatV1.23B16,2013-12-06 18:51:00,
2013-12-06 10:56:00,43.1,37.7,30.22,North,350,0.0,0.0,81,0.00,,,0.00,WeatherCatV1.23B16,2013-12-06 18:56:00,
2013-12-06 11:01:00,43.3,37.9,30.22,North,350,0.0,0.0,81,0.00,,,0.00,WeatherCatV1.23B16,2013-12-06 19:01:00,
2013-12-06 11:06:00,43.4,38.0,30.22,North,350,0.0,0.0,81,0.00,,,0.00,WeatherCatV1.23B16,2013-12-06 19:06:00,
2013-12-06 11:11:00,43.7,37.9,30.22,SE,136,0.0,0.0,80,0.00,,,0.00,WeatherCatV1.23B16,2013-12-06 19:11:00,
2013-12-06 11:16:00,44.0,37.9,30.22,SE,135,0.0,0.0,79,0.00,,,0.00,WeatherCatV1.23B16,2013-12-06 19:16:00,
2013-12-06 11:21:00,44.3,38.2,30.21,SE,135,0.0,0.0,79,0.00,,,0.00,WeatherCatV1.23B16,2013-12-06 19:21:00,
2013-12-06 11:26:00,44.7,38.6,30.21,SE,134,0.0,0.0,79,0.00,,,0.00,WeatherCatV1.23B16,2013-12-06 19:26:00,
2013-12-06 11:31:00,44.6,38.2,30.21,SE,134,0.0,3.0,78,0.00,,,0.00,WeatherCatV1.23B16,2013-12-06 19:31:00,
2013-12-06 11:36:00,44.7,38.3,30.20,SE,133,0.0,1.0,78,0.00,,,0.00,WeatherCatV1.23B16,2013-12-06 19:36:00,
2013-12-06 11:41:00,44.9,38.8,30.21,SE,134,0.0,0.0,79,0.00,,,0.00,WeatherCatV1.23B16,2013-12-06 19:41:00,
2013-12-06 11:46:00,45.1,39.0,30.20,SE,133,0.0,0.0,79,0.00,,,0.00,WeatherCatV1.23B16,2013-12-06 19:46:00,
2013-12-06 11:51:00,45.3,38.8,30.20,SE,134,0.0,4.0,78,0.00,,,0.00,WeatherCatV1.23B16,2013-12-06 19:51:00,
2013-12-06 11:56:00,45.5,39.0,30.20,SE,140,3.0,3.0,78,0.00,,,0.00,WeatherCatV1.23B16,2013-12-06 19:56:00,
2013-12-06 12:01:00,45.5,38.7,30.19,SE,136,3.0,4.0,77,0.00,,,0.00,WeatherCatV1.23B16,2013-12-06 20:01:00,
2013-12-06 12:06:00,45.6,38.8,30.19,SE,138,3.0,5.0,77,0.00,,,0.00,WeatherCatV1.23B16,2013-12-06 20:06:00,
2013-12-06 12:11:00,45.9,39.1,30.19,SE,133,3.0,4.0,77,0.00,,,0.00,WeatherCatV1.23B16,2013-12-06 20:11:00,
2013-12-06 12:16:00,46.3,38.8,30.19,SE,134,3.0,4.0,75,0.00,,,0.00,WeatherCatV1.23B16,2013-12-06 20:16:00,
2013-12-06 12:21:00,46.7,38.9,30.19,SE,131,4.0,4.0,74,0.00,,,0.00,WeatherCatV1.23B16,2013-12-06 20:21:00,
2013-12-06 12:26:00,46.8,38.3,30.18,SE,134,0.0,4.0,72,0.00,,,0.00,WeatherCatV1.23B16,2013-12-06 20:26:00,
2013-12-06 12:31:00,46.9,38.3,30.17,SE,136,0.0,4.0,72,0.00,,,0.00,WeatherCatV1.23B16,2013-12-06 20:31:00,
2013-12-06 12:36:00,47.1,38.5,30.17,ESE,103,0.0,2.0,72,0.00,,,0.00,WeatherCatV1.23B16,2013-12-06 20:36:00,
2013-12-06 12:41:00,47.5,38.9,30.17,ESE,120,0.0,1.0,72,0.00,,,0.00,WeatherCatV1.23B16,2013-12-06 20:41:00,
2013-12-06 12:46:00,47.8,39.2,30.17,SE,136,0.0,0.0,72,0.00,,,0.00,WeatherCatV1.23B16,2013-12-06 20:46:00,
2013-12-06 12:51:00,47.9,39.0,30.17,ESE,110,3.0,4.0,71,0.00,,,0.00,WeatherCatV1.23B16,2013-12-06 20:51:00,
2013-12-06 12:56:00,47.7,38.8,30.17,ESE,115,3.0,5.0,71,0.00,,,0.00,WeatherCatV1.23B16,2013-12-06 20:56:00,
2013-12-06 13:01:00,47.6,38.3,30.17,ESE,109,0.0,2.0,70,0.00,,,0.00,WeatherCatV1.23B16,2013-12-06 21:01:00,
2013-12-06 13:06:00,47.7,38.8,30.17,ESE,104,0.0,3.0,71,0.00,,,0.00,WeatherCatV1.23B16,2013-12-06 21:06:00,
2013-12-06 13:11:00,47.9,39.3,30.17,ESE,115,0.0,0.0,72,0.00,,,0.00,WeatherCatV1.23B16,2013-12-06 21:11:00,
2013-12-06 13:16:00,48.1,38.8,30.16,SSE,151,0.0,3.0,70,0.00,,,0.00,WeatherCatV1.23B16,2013-12-06 21:16:00,
2013-12-06 13:21:00,48.4,38.3,30.16,SE,146,0.0,4.0,68,0.00,,,0.00,WeatherCatV1.23B16,2013-12-06 21:21:00,
2013-12-06 13:26:00,48.6,39.3,30.15,SE,133,5.0,5.0,70,0.00,,,0.00,WeatherCatV1.23B16,2013-12-06 21:26:00,
2013-12-06 13:31:00,49.0,34.9,30.16,SW,217,0.0,5.0,58,0.00,,,0.00,WeatherCatV1.23B16,2013-12-06 21:31:00,
2013-12-06 13:36:00,49.7,35.5,30.15,WSW,255,0.0,6.0,58,0.00,,,0.00,WeatherCatV1.23B16,2013-12-06 21:36:00,
2013-12-06 13:41:00,50.0,34.9,30.15,SSW,192,0.0,4.0,56,0.00,,,0.00,WeatherCatV1.23B16,2013-12-06 21:41:00,
2013-12-06 13:46:00,50.2,35.6,30.15,WSW,258,2.0,3.0,57,0.00,,,0.00,WeatherCatV1.23B16,2013-12-06 21:46:00,
2013-12-06 13:51:00,50.1,35.5,30.14,SW,228,0.0,0.0,57,0.00,,,0.00,WeatherCatV1.23B16,2013-12-06 21:51:00,
2013-12-06 13:56:00,50.2,38.9,30.14,South,169,0.0,0.0,65,0.00,,,0.00,WeatherCatV1.23B16,2013-12-06 21:56:00,
2013-12-06 14:01:00,50.1,38.0,30.14,South,185,0.0,0.0,63,0.00,,,0.00,WeatherCatV1.23B16,2013-12-06 22:01:00,
2013-12-06 14:06:00,50.0,38.7,30.14,SE,130,0.0,0.0,65,0.00,,,0.00,WeatherCatV1.23B16,2013-12-06 22:06:00,
2013-12-06 14:11:00,49.9,39.0,30.14,South,169,0.0,0.0,66,0.00,,,0.00,WeatherCatV1.23B16,2013-12-06 22:11:00,
2013-12-06 14:16:00,50.0,39.1,30.14,SSE,155,0.0,1.0,66,0.00,,,0.00,WeatherCatV1.23B16,2013-12-06 22:16:00,
2013-12-06 14:21:00,50.1,38.8,30.13,South,169,0.0,4.0,65,0.00,,,0.00,WeatherCatV1.23B16,2013-12-06 22:21:00,
2013-12-06 14:26:00,50.4,39.1,30.13,SW,217,0.0,6.0,65,0.00,,,0.00,WeatherCatV1.23B16,2013-12-06 22:26:00,
2013-12-06 14:31:00,50.5,39.6,30.13,SSW,209,2.0,6.0,66,0.00,,,0.00,WeatherCatV1.23B16,2013-12-06 22:31:00,
2013-12-06 14:36:00,50.5,39.6,30.13,SSW,203,2.0,7.0,66,0.00,,,0.00,WeatherCatV1.23B16,2013-12-06 22:36:00,
2013-12-06 14:41:00,50.5,40.0,30.13,SSE,166,2.0,5.0,67,0.00,,,0.00,WeatherCatV1.23B16,2013-12-06 22:41:00,
2013-12-06 14:46:00,50.4,40.2,30.13,SW,236,8.0,10.0,68,0.00,,,0.00,WeatherCatV1.23B16,2013-12-06 22:46:00,
2013-12-06 14:51:00,50.3,40.2,30.13,West,264,10.0,11.0,68,0.00,,,0.00,WeatherCatV1.23B16,2013-12-06 22:51:00,
2013-12-06 14:56:00,50.1,39.6,30.13,SSW,207,7.0,11.0,67,0.00,,,0.00,WeatherCatV1.23B16,2013-12-06 22:56:00,
2013-12-06 15:01:00,50.1,40.0,30.13,SSW,202,5.0,7.0,68,0.00,,,0.00,WeatherCatV1.23B16,2013-12-06 23:01:00,
2013-12-06 15:06:00,50.0,39.9,30.12,North,0,4.0,9.0,68,0.00,,,0.00,WeatherCatV1.23B16,2013-12-06 23:06:00,
2013-12-06 15:11:00,50.1,39.6,30.12,South,182,0.0,10.0,67,0.00,,,0.00,WeatherCatV1.23B16,2013-12-06 23:11:00,
2013-12-06 15:16:00,50.2,39.7,30.12,South,182,0.0,0.0,67,0.00,,,0.00,WeatherCatV1.23B16,2013-12-06 23:16:00,
2013-12-06 15:21:00,50.2,39.7,30.12,SE,142,0.0,7.0,67,0.00,,,0.00,WeatherCatV1.23B16,2013-12-06 23:21:00,
2013-12-06 15:26:00,50.2,39.7,30.12,SSW,210,0.0,11.0,67,0.00,,,0.00,WeatherCatV1.23B16,2013-12-06 23:26:00,
2013-12-06 15:31:00,50.2,40.4,30.12,SW,235,2.0,8.0,69,0.00,,,0.00,WeatherCatV1.23B16,2013-12-06 23:31:00,
2013-12-06 15:36:00,50.2,40.4,30.12,WSW,249,2.0,11.0,69,0.00,,,0.00,WeatherCatV1.23B16,2013-12-06 23:36:00,
2013-12-06 15:41:00,50.1,40.7,30.12,SW,229,0.0,6.0,70,0.00,,,0.00,WeatherCatV1.23B16,2013-12-06 23:41:00,
2013-12-06 15:46:00,50.1,41.4,30.12,SSW,207,0.0,4.0,72,0.00,,,0.00,WeatherCatV1.23B16,2013-12-06 23:46:00,
2013-12-06 15:51:00,49.9,41.2,30.12,SW,225,5.0,9.0,72,0.00,,,0.00,WeatherCatV1.23B16,2013-12-06 23:51:00,
2013-12-06 15:56:00,49.9,41.6,30.11,SSW,193,2.0,5.0,73,0.00,,,0.00,WeatherCatV1.23B16,2013-12-06 23:56:00,
2013-12-06 16:01:00,49.9,41.6,30.11,SE,145,3.0,7.0,73,0.00,,,0.00,WeatherCatV1.23B16,2013-12-07 00:01:00,
2013-12-06 16:06:00,49.9,41.6,30.11,SW,232,0.0,10.0,73,0.00,,,0.00,WeatherCatV1.23B16,2013-12-07 00:06:00,
2013-12-06 16:11:00,49.7,42.1,30.11,SE,135,0.0,7.0,75,0.00,,,0.00,WeatherCatV1.23B16,2013-12-07 00:11:00,
2013-12-06 16:16:00,49.6,42.3,30.11,SW,224,0.0,10.0,76,0.00,,,0.00,WeatherCatV1.23B16,2013-12-07 00:16:00,
2013-12-06 16:21:00,49.5,42.6,30.11,South,188,0.0,6.0,77,0.00,,,0.00,WeatherCatV1.23B16,2013-12-07 00:21:00,
2013-12-06 16:26:00,49.3,42.7,30.10,SW,222,1.0,6.0,78,0.00,,,0.00,WeatherCatV1.23B16,2013-12-07 00:26:00,
2013-12-06 16:31:00,49.2,42.6,30.10,SSE,156,0.0,0.0,78,0.00,,,0.00,WeatherCatV1.23B16,2013-12-07 00:31:00,
2013-12-06 16:36:00,49.3,42.7,30.10,South,190,4.0,7.0,78,0.00,,,0.00,WeatherCatV1.23B16,2013-12-07 00:36:00,
2013-12-06 16:40:00,49.4,42.8,30.09,SSE,163,2.0,10.0,78,0.00,,,0.00,WeatherCatV1.23B16,2013-12-07 00:40:00,
2013-12-06 16:45:00,49.3,42.7,30.10,SSE,163,0.0,6.0,78,0.00,,,0.00,WeatherCatV1.23B16,2013-12-07 00:45:00,
2013-12-06 16:50:00,49.4,42.8,30.10,SSE,155,0.0,3.0,78,0.00,,,0.00,WeatherCatV1.23B16,2013-12-07 00:50:00,
2013-12-06 16:55:00,49.6,43.0,30.10,South,191,8.0,8.0,78,0.00,,,0.00,WeatherCatV1.23B16,2013-12-07 00:55:00,
2013-12-06 17:00:00,49.7,42.8,30.09,SSE,153,3.0,10.0,77,0.00,,,0.00,WeatherCatV1.23B16,2013-12-07 01:00:00,
2013-12-06 17:05:00,49.8,43.2,30.09,SSE,168,9.0,15.0,78,0.00,,,0.00,WeatherCatV1.23B16,2013-12-07 01:05:00,
2013-12-06 17:10:00,49.8,43.5,30.09,SE,132,6.0,9.0,79,0.00,,,0.00,WeatherCatV1.23B16,2013-12-07 01:10:00,
2013-12-06 17:15:00,49.9,43.7,30.08,SSW,207,1.0,7.0,79,0.00,,,0.00,WeatherCatV1.23B16,2013-12-07 01:15:00,
2013-12-06 17:20:00,49.9,43.7,30.08,SSW,210,2.0,4.0,79,0.00,,,0.00,WeatherCatV1.23B16,2013-12-07 01:20:00,
2013-12-06 17:25:00,49.9,44.0,30.08,SW,215,0.0,7.0,80,0.00,,,0.00,WeatherCatV1.23B16,2013-12-07 01:25:00,
2013-12-06 17:30:00,50.0,44.1,30.08,SSW,202,2.0,13.0,80,0.00,,,0.01,WeatherCatV1.23B16,2013-12-07 01:30:00,
2013-12-06 17:35:00,50.0,44.4,30.07,SSE,160,5.0,12.0,81,0.00,,,0.01,WeatherCatV1.23B16,2013-12-07 01:35:00,
2013-12-06 17:40:00,49.9,44.3,30.07,South,175,0.0,12.0,81,0.00,,,0.01,WeatherCatV1.23B16,2013-12-07 01:40:00,
2013-12-06 17:45:00,49.8,44.5,30.07,SE,142,10.0,11.0,82,0.00,,,0.01,WeatherCatV1.23B16,2013-12-07 01:45:00,
2013-12-06 17:50:00,49.7,44.8,30.07,SSE,160,14.0,15.0,83,0.00,,,0.01,WeatherCatV1.23B16,2013-12-07 01:50:00,
2013-12-06 17:55:00,49.5,44.5,30.07,SSE,163,0.0,5.0,83,0.00,,,0.01,WeatherCatV1.23B16,2013-12-07 01:55:00,
2013-12-06 18:00:00,49.5,44.9,30.07,South,180,4.0,4.0,84,0.00,,,0.01,WeatherCatV1.23B16,2013-12-07 02:00:00,
2013-12-06 18:05:00,49.3,45.0,30.07,SSE,156,1.0,11.0,85,0.00,,,0.01,WeatherCatV1.23B16,2013-12-07 02:05:00,
2013-12-06 18:10:00,49.1,44.8,30.07,South,169,0.0,7.0,85,0.00,,,0.01,WeatherCatV1.23B16,2013-12-07 02:10:00,
2013-12-06 18:15:00,49.0,45.0,30.06,South,172,0.0,5.0,86,0.00,,,0.01,WeatherCatV1.23B16,2013-12-07 02:15:00,
2013-12-06 18:20:00,48.9,45.2,30.07,SW,224,0.0,0.0,87,0.00,,,0.01,WeatherCatV1.23B16,2013-12-07 02:20:00,
2013-12-06 18:25:00,49.0,45.6,30.06,ESE,119,0.0,7.0,88,0.00,,,0.01,WeatherCatV1.23B16,2013-12-07 02:25:00,
2013-12-06 18:30:00,49.3,46.2,30.05,SSW,200,3.0,17.0,89,0.00,,,0.01,WeatherCatV1.23B16,2013-12-07 02:30:00,
2013-12-06 18:35:00,49.8,46.7,30.06,SE,130,12.0,16.0,89,0.00,,,0.01,WeatherCatV1.23B16,2013-12-07 02:35:00,
2013-12-06 18:40:00,49.9,46.5,30.06,SE,136,5.0,5.0,88,0.00,,,0.01,WeatherCatV1.23B16,2013-12-07 02:40:00,
2013-12-06 18:45:00,49.9,46.5,30.06,NNE,20,2.0,7.0,88,0.00,,,0.01,WeatherCatV1.23B16,2013-12-07 02:45:00,
2013-12-06 18:50:00,49.9,46.5,30.05,ESE,109,0.0,0.0,88,0.00,,,0.02,WeatherCatV1.23B16,2013-12-07 02:50:00,
2013-12-06 18:55:00,50.1,46.7,30.05,SW,223,11.0,24.0,88,0.13,,,0.03,WeatherCatV1.23B16,2013-12-07 02:55:00,
2013-12-06 19:00:00,50.4,47.0,30.04,NW,319,10.0,10.0,88,0.06,,,0.03,WeatherCatV1.23B16,2013-12-07 03:00:00,
2013-12-06 19:05:00,50.6,46.9,30.04,NE,40,4.0,11.0,87,0.05,,,0.04,WeatherCatV1.23B16,2013-12-07 03:05:00,
2013-12-06 19:10:00,50.7,47.0,30.04,West,271,6.0,11.0,87,0.05,,,0.04,WeatherCatV1.23B16,2013-12-07 03:10:00,
2013-12-06 19:15:00,50.6,46.3,30.04,SSE,154,9.0,13.0,85,0.05,,,0.04,WeatherCatV1.23B16,2013-12-07 03:15:00,
2013-12-06 19:20:00,50.5,45.8,30.04,West,277,5.0,10.0,84,0.00,,,0.04,WeatherCatV1.23B16,2013-12-07 03:20:00,
2013-12-06 19:25:00,50.4,45.8,30.04,SE,138,12.0,13.0,84,0.00,,,0.04,WeatherCatV1.23B16,2013-12-07 03:25:00,
2013-12-06 19:30:00,50.4,46.1,30.03,ESE,108,3.0,5.0,85,0.00,,,0.04,WeatherCatV1.23B16,2013-12-07 03:30:00,
2013-12-06 19:35:00,50.5,46.2,30.03,NNW,344,4.0,8.0,85,0.00,,,0.04,WeatherCatV1.23B16,2013-12-07 03:35:00,
2013-12-06 19:40:00,50.5,46.2,30.03,West,273,11.0,11.0,85,0.00,,,0.04,WeatherCatV1.23B16,2013-12-07 03:40:00,
2013-12-06 19:45:00,50.5,46.5,30.03,WNW,300,11.0,11.0,86,0.00,,,0.04,WeatherCatV1.23B16,2013-12-07 03:45:00,
2013-12-06 19:50:00,50.6,46.9,30.02,WNW,298,0.0,3.0,87,0.00,,,0.04,WeatherCatV1.23B16,2013-12-07 03:50:00,
2013-12-06 19:55:00,50.6,46.6,30.02,South,188,4.0,11.0,86,0.00,,,0.04,WeatherCatV1.23B16,2013-12-07 03:55:00,
2013-12-06 20:00:00,50.8,46.5,30.02,NNW,344,5.0,5.0,85,0.00,,,0.04,WeatherCatV1.23B16,2013-12-07 04:00:00,
2013-12-06 20:05:00,51.2,46.5,30.03,South,188,10.0,12.0,84,0.00,,,0.04,WeatherCatV1.23B16,2013-12-07 04:05:00,
2013-12-06 20:10:00,51.7,46.7,30.01,NE,42,2.0,17.0,83,0.00,,,0.04,WeatherCatV1.23B16,2013-12-07 04:10:00,
2013-12-06 20:15:00,51.8,46.8,30.01,WNW,296,15.0,17.0,83,0.00,,,0.04,WeatherCatV1.23B16,2013-12-07 04:15:00,
2013-12-06 20:20:00,51.9,46.9,30.01,SSE,166,3.0,10.0,83,0.00,,,0.04,WeatherCatV1.23B16,2013-12-07 04:20:00,
2013-12-06 20:25:00,51.9,46.9,30.01,WSW,257,6.0,14.0,83,0.00,,,0.04,WeatherCatV1.23B16,2013-12-07 04:25:00,
2013-12-06 20:30:00,51.9,46.9,30.01,WSW,252,0.0,15.0,83,0.00,,,0.04,WeatherCatV1.23B16,2013-12-07 04:30:00,
2013-12-06 20:35:00,51.6,47.2,30.00,WNW,301,5.0,10.0,85,0.00,,,0.05,WeatherCatV1.23B16,2013-12-07 04:35:00,
2013-12-06 20:40:00,51.2,46.8,30.00,NW,324,13.0,19.0,85,0.00,,,0.05,WeatherCatV1.23B16,2013-12-07 04:40:00,
2013-12-06 20:45:00,51.0,47.0,30.00,SE,131,10.0,11.0,86,0.06,,,0.06,WeatherCatV1.23B16,2013-12-07 04:45:00,
2013-12-06 20:50:00,51.3,47.2,29.99,ENE,74,4.0,24.0,86,0.06,,,0.06,WeatherCatV1.23B16,2013-12-07 04:50:00,
2013-12-06 20:55:00,51.7,47.3,29.99,North,0,14.0,14.0,85,0.05,,,0.06,WeatherCatV1.23B16,2013-12-07 04:55:00,
2013-12-06 21:00:00,52.0,47.3,29.99,WNW,290,7.0,9.0,84,0.04,,,0.06,WeatherCatV1.23B16,2013-12-07 05:00:00,
2013-12-06 21:01:00,52.0,47.3,29.99,WNW,298,6.0,9.0,84,0.04,,,0.06,WeatherCatV1.23B16,2013-12-07 05:01:00,
2013-12-06 21:06:00,52.2,47.8,30.00,SSW,203,7.0,22.0,85,0.00,,,0.06,WeatherCatV1.23B16,2013-12-07 05:06:00,
2013-12-06 21:11:00,52.2,47.8,29.98,WNW,286,17.0,22.0,85,0.00,,,0.06,WeatherCatV1.23B16,2013-12-07 05:11:00,
2013-12-06 21:16:00,52.3,47.6,29.98,WNW,302,11.0,23.0,84,0.00,,,0.06,WeatherCatV1.23B16,2013-12-07 05:16:00,
2013-12-06 21:17:00,52.3,47.6,29.98,WSW,241,7.0,17.0,84,0.00,,,0.06,WeatherCatV1.23B16,2013-12-07 05:17:00,
2013-12-06 21:22:00,52.2,47.8,29.99,SW,218,9.0,25.0,85,0.00,,,0.07,WeatherCatV1.23B16,2013-12-07 05:22:00,
2013-12-06 21:27:00,52.1,47.7,29.98,NW,316,9.0,24.0,85,0.14,,,0.08,WeatherCatV1.23B16,2013-12-07 05:27:00,
2013-12-06 21:32:00,52.0,47.9,29.98,NNE,13,2.0,15.0,86,0.14,,,0.09,WeatherCatV1.23B16,2013-12-07 05:32:00,
2013-12-06 21:37:00,51.9,48.2,29.98,West,270,14.0,22.0,87,0.10,,,0.10,WeatherCatV1.23B16,2013-12-07 05:37:00,
2013-12-06 21:42:00,52.0,48.6,29.97,West,261,7.0,16.0,88,0.07,,,0.10,WeatherCatV1.23B16,2013-12-07 05:42:00,
2013-12-06 21:47:00,52.0,48.6,29.97,SW,224,9.0,19.0,88,0.07,,,0.11,WeatherCatV1.23B16,2013-12-07 05:47:00,
2013-12-06 21:52:00,52.1,48.7,29.97,WNW,288,9.0,11.0,88,0.17,,,0.13,WeatherCatV1.23B16,2013-12-07 05:52:00,
2013-12-06 21:57:00,52.1,48.7,29.97,WNW,299,5.0,16.0,88,0.11,,,0.14,WeatherCatV1.23B16,2013-12-07 05:57:00,
2013-12-06 22:02:00,52.0,48.6,29.97,WNW,284,7.0,12.0,88,0.17,,,0.15,WeatherCatV1.23B16,2013-12-07 06:02:00,
2013-12-06 22:07:00,52.1,48.7,29.96,WSW,252,5.0,14.0,88,0.08,,,0.15,WeatherCatV1.23B16,2013-12-07 06:07:00,
2013-12-06 22:12:00,52.2,48.8,29.97,North,0,6.0,21.0,88,0.05,,,0.15,WeatherCatV1.23B16,2013-12-07 06:12:00,
2013-12-06 22:17:00,52.3,48.8,29.96,East,88,3.0,21.0,88,0.00,,,0.15,WeatherCatV1.23B16,2013-12-07 06:17:00,
2013-12-06 22:22:00,52.4,49.0,29.97,West,275,6.0,13.0,88,0.00,,,0.16,WeatherCatV1.23B16,2013-12-07 06:22:00,
2013-12-06 22:27:00,52.2,49.1,29.96,West,263,11.0,16.0,89,0.23,,,0.18,WeatherCatV1.23B16,2013-12-07 06:27:00,
2013-12-06 22:32:00,51.6,48.2,29.98,NNW,337,19.0,19.0,88,0.39,,,0.22,WeatherCatV1.23B16,2013-12-07 06:32:00,
2013-12-06 22:37:00,49.7,46.0,29.97,North,0,13.0,21.0,87,0.83,,,0.28,WeatherCatV1.23B16,2013-12-07 06:37:00,
2013-12-06 22:42:00,49.9,47.1,29.96,NW,317,4.0,16.0,90,0.34,,,0.30,WeatherCatV1.23B16,2013-12-07 06:42:00,
2013-12-06 22:47:00,50.2,47.1,29.96,WSW,254,7.0,15.0,89,0.14,,,0.32,WeatherCatV1.23B16,2013-12-07 06:47:00,
2013-12-06 22:52:00,50.0,46.6,29.96,SW,232,10.0,21.0,88,0.33,,,0.34,WeatherCatV1.23B16,2013-12-07 06:52:00,
2013-12-06 22:57:00,49.0,45.9,29.96,West,261,17.0,17.0,89,0.18,,,0.36,WeatherCatV1.23B16,2013-12-07 06:57:00,
2013-12-06 23:02:00,48.7,45.6,29.96,West,267,10.0,11.0,89,0.09,,,0.36,WeatherCatV1.23B16,2013-12-07 07:02:00,
2013-12-06 23:07:00,48.7,45.9,29.96,WSW,248,0.0,8.0,90,0.05,,,0.36,WeatherCatV1.23B16,2013-12-07 07:07:00,
2013-12-06 23:12:00,48.8,46.0,29.95,West,273,9.0,14.0,90,0.04,,,0.36,WeatherCatV1.23B16,2013-12-07 07:12:00,
2013-12-06 23:17:00,48.9,46.1,29.96,West,274,8.0,12.0,90,0.00,,,0.36,WeatherCatV1.23B16,2013-12-07 07:17:00,
2013-12-06 23:22:00,49.0,46.2,29.96,West,268,3.0,11.0,90,0.00,,,0.36,WeatherCatV1.23B16,2013-12-07 07:22:00,
2013-12-06 23:27:00,49.0,46.2,29.96,WNW,290,4.0,8.0,90,0.00,,,0.37,WeatherCatV1.23B16,2013-12-07 07:27:00,
2013-12-06 23:32:00,49.2,46.7,29.96,WNW,296,4.0,10.0,91,0.00,,,0.37,WeatherCatV1.23B16,2013-12-07 07:32:00,
2013-12-06 23:37:00,49.4,46.3,29.96,WNW,298,3.0,12.0,89,0.00,,,0.37,WeatherCatV1.23B16,2013-12-07 07:37:00,
2013-12-06 23:42:00,49.5,46.1,29.96,West,273,4.0,6.0,88,0.00,,,0.37,WeatherCatV1.23B16,2013-12-07 07:42:00,
2013-12-06 23:47:00,49.6,46.2,29.96,NW,317,0.0,0.0,88,0.00,,,0.37,WeatherCatV1.23B16,2013-12-07 07:47:00,
2013-12-06 23:52:00,49.5,46.1,29.97,West,263,4.0,5.0,88,0.00,,,0.37,WeatherCatV1.23B16,2013-12-07 07:52:00,
2013-12-06 23:57:00,49.6,46.2,29.96,NW,313,0.0,2.0,88,0.00,,,0.37,WeatherCatV1.23B16,2013-12-07 07:57:00,